| time (UTC) | temp C | wind direction | speed KPH | gust KPH | rain 1hr cm | rain 24hr cm | rain mn cm | humidity % | barometer mb |
| 20260507114711 | 7 | 223 | 12.9 | 20.9 | 0.00 | 0.00 | 0.00 | 75 | 1011.3 |
| 20260507113710 | 7 | 225 | 11.3 | 25.7 | 0.00 | 0.00 | 0.00 | 75 | 1011.4 |
| 20260507112710 | 7 | 219 | 16.1 | 25.7 | 0.00 | 0.00 | 0.00 | 75 | 1011.4 |
| 20260507111710 | 7 | 242 | 14.5 | 22.5 | 0.00 | 0.00 | 0.00 | 74 | 1011.4 |
| 20260507110711 | 7 | 227 | 17.7 | 22.5 | 0.00 | 0.00 | 0.00 | 74 | 1011.5 |
| 20260507103710 | 7 | 220 | 17.7 | 27.4 | 0.00 | 0.00 | 0.00 | 74 | 1011.7 |
| 20260507102710 | 7 | 219 | 16.1 | 25.7 | 0.00 | 0.00 | 0.00 | 73 | 1011.8 |
| 20260507101710 | 7 | 219 | 16.1 | 24.1 | 0.00 | 0.00 | 0.00 | 73 | 1011.9 |
| 20260507100711 | 7 | 217 | 19.3 | 29.0 | 0.00 | 0.00 | 0.00 | 73 | 1011.9 |
| 20260507095710 | 7 | 223 | 16.1 | 25.7 | 0.00 | 0.00 | 0.00 | 72 | 1012.0 |
| 20260507094711 | 7 | 212 | 17.7 | 29.0 | 0.00 | 0.00 | 0.00 | 72 | 1012.1 |
| 20260507093710 | 7 | 223 | 16.1 | 27.4 | 0.00 | 0.00 | 0.00 | 72 | 1012.1 |
| 20260507091711 | 7 | 220 | 16.1 | 32.2 | 0.00 | 0.00 | 0.00 | 72 | 1012.3 |
| 20260507090710 | 7 | 221 | 19.3 | 25.7 | 0.00 | 0.00 | 0.00 | 72 | 1012.4 |
| 20260507085710 | 7 | 211 | 16.1 | 27.4 | 0.00 | 0.00 | 0.00 | 72 | 1012.3 |
| 20260507084710 | 7 | 228 | 16.1 | 29.0 | 0.00 | 0.00 | 0.00 | 71 | 1012.5 |
| 20260507083710 | 7 | 219 | 17.7 | 27.4 | 0.00 | 0.00 | 0.00 | 70 | 1012.6 |
| 20260507082711 | 7 | 225 | 14.5 | 22.5 | 0.00 | 0.00 | 0.00 | 70 | 1012.6 |
| 20260507080711 | 7 | 215 | 11.3 | 24.1 | 0.00 | 0.00 | 0.00 | 69 | 1012.9 |
| 20260507075710 | 7 | 205 | 9.7 | 19.3 | 0.00 | 0.00 | 0.00 | 68 | 1012.9 |
| 20260507074710 | 7 | 213 | 9.7 | 14.5 | 0.00 | 0.00 | 0.00 | 68 | 1013.1 |
| 20260507073710 | 7 | 234 | 9.7 | 19.3 | 0.00 | 0.00 | 0.00 | 68 | 1013.2 |
| 20260507072710 | 7 | 205 | 9.7 | 19.3 | 0.00 | 0.00 | 0.00 | 67 | 1013.5 |
| 20260507071710 | 8 | 209 | 9.7 | 12.9 | 0.00 | 0.00 | 0.00 | 66 | 1013.6 |
| 20260507070710 | 8 | 223 | 8.0 | 16.1 | 0.00 | 0.00 | 0.00 | 64 | 1013.9 |
| 20260507064710 | 9 | 213 | 11.3 | 24.1 | 0.00 | 0.00 | 0.00 | 62 | 1014.0 |
| 20260507063711 | 9 | 233 | 14.5 | 24.1 | 0.00 | 0.00 | 0.00 | 62 | 1014.2 |
| 20260507062711 | 9 | 217 | 12.9 | 22.5 | 0.00 | 0.00 | 0.00 | 62 | 1014.1 |
| 20260507061711 | 9 | 245 | 12.9 | 22.5 | 0.00 | 0.00 | 0.00 | 62 | 1014.2 |
| 20260507060710 | 9 | 217 | 14.5 | 20.9 | 0.00 | 0.00 | 0.00 | 62 | 1014.3 |
| 20260507055710 | 8 | 212 | 11.3 | 20.9 | 0.00 | 0.00 | 0.00 | 63 | 1014.5 |
| 20260507054710 | 8 | 218 | 9.7 | 19.3 | 0.00 | 0.00 | 0.00 | 65 | 1014.5 |
| 20260507053711 | 7 | 219 | 4.8 | 11.3 | 0.00 | 0.00 | 0.00 | 64 | 1014.7 |
| 20260507052711 | 7 | 215 | 6.4 | 11.3 | 0.00 | 0.00 | 0.00 | 61 | 1014.8 |
| 20260507051711 | 7 | 217 | 3.2 | 4.8 | 0.00 | 0.00 | 0.00 | 57 | 1014.8 |
| 20260507044710 | 8 | 211 | 8.0 | 11.3 | 0.00 | 0.00 | 0.00 | 51 | 1014.9 |
| 20260507043711 | 9 | 217 | 4.8 | 9.7 | 0.00 | 0.00 | 0.00 | 48 | 1015.1 |
| 20260507042711 | 9 | 215 | 6.4 | 8.0 | 0.00 | 0.00 | 0.00 | 46 | 1015.2 |
| 20260507041710 | 10 | 194 | 1.6 | 4.8 | 0.00 | 0.00 | 0.00 | 45 | 1015.1 |
| 20260507035711 | 10 | 195 | 3.2 | 8.0 | 0.00 | 0.00 | 0.00 | 43 | 1015.2 |
| 20260507034711 | 10 | 211 | 3.2 | 4.8 | 0.00 | 0.00 | 0.00 | 43 | 1015.3 |
| 20260507033710 | 10 | 203 | 3.2 | 4.8 | 0.00 | 0.00 | 0.00 | 42 | 1015.3 |
| 20260507032710 | 10 | 201 | 3.2 | 4.8 | 0.00 | 0.00 | 0.00 | 42 | 1015.4 |
| 20260507030711 | 10 | 182 | 1.6 | 4.8 | 0.00 | 0.00 | 0.00 | 42 | 1015.5 |
| 20260507025711 | 10 | 194 | 1.6 | 3.2 | 0.00 | 0.00 | 0.00 | 41 | 1015.4 |
| 20260507024711 | 10 | 217 | 0.0 | 3.2 | 0.00 | 0.00 | 0.00 | 40 | 1015.4 |
| 20260507023711 | 11 | 217 | 1.6 | 4.8 | 0.00 | 0.00 | 0.00 | 39 | 1015.5 |
| 20260507021710 | 11 | 217 | 1.6 | 3.2 | 0.00 | 0.00 | 0.00 | 36 | 1015.3 |
| 20260507020711 | 11 | 211 | 1.6 | 4.8 | 0.00 | 0.00 | 0.00 | 36 | 1015.3 |
| 20260507015710 | 12 | 211 | 3.2 | 4.8 | 0.00 | 0.00 | 0.00 | 35 | 1015.2 |
| 20260507014710 | 12 | 214 | 3.2 | 4.8 | 0.00 | 0.00 | 0.00 | 35 | 1015.2 |
| 20260507013711 | 12 | 252 | 0.0 | 3.2 | 0.00 | 0.00 | 0.00 | 33 | 1015.2 |
| 20260507012711 | 13 | 252 | 1.6 | 4.8 | 0.00 | 0.00 | 0.00 | 32 | 1015.2 |
| 20260507011711 | 14 | 232 | 4.8 | 8.0 | 0.00 | 0.00 | 0.00 | 31 | 1015.2 |
| 20260507010710 | 14 | 265 | 1.6 | 9.7 | 0.00 | 0.00 | 0.00 | 30 | 1015.2 |
| 20260507005710 | 14 | 259 | 3.2 | 11.3 | 0.00 | 0.00 | 0.00 | 29 | 1015.2 |
| 20260507004710 | 15 | 259 | 8.0 | 16.1 | 0.00 | 0.00 | 0.00 | 27 | 1015.2 |
| 20260507003710 | 15 | 249 | 9.7 | 16.1 | 0.00 | 0.00 | 0.00 | 29 | 1015.3 |
| 20260507002710 | 15 | 250 | 8.0 | 20.9 | 0.00 | 0.00 | 0.00 | 28 | 1015.2 |
| 20260507001710 | 15 | 252 | 14.5 | 19.3 | 0.00 | 0.00 | 0.00 | 26 | 1015.3 |
| 20260507000710 | 15 | 256 | 9.7 | 19.3 | 0.00 | 0.00 | 0.00 | 28 | 1015.3 |
| 20260506235710 | 15 | 292 | 8.0 | 19.3 | 0.00 | 0.00 | 0.00 | 30 | 1015.4 |
| 20260506234711 | 15 | 278 | 16.1 | 25.7 | 0.00 | 0.00 | 0.00 | 30 | 1015.5 |
| 20260506233710 | 15 | 284 | 4.8 | 19.3 | 0.00 | 0.00 | 0.00 | 26 | 1015.7 |
| 20260506232711 | 15 | 322 | 8.0 | 19.3 | 0.00 | 0.00 | 0.00 | 30 | 1015.8 |
| 20260506230710 | 16 | 289 | 11.3 | 24.1 | 0.00 | 0.00 | 0.00 | 28 | 1015.9 |
| 20260506225710 | 16 | 313 | 11.3 | 24.1 | 0.00 | 0.00 | 0.00 | 32 | 1015.8 |
| 20260506224710 | 15 | 5 | 11.3 | 19.3 | 0.00 | 0.00 | 0.00 | 28 | 1016.1 |
| 20260506223711 | 16 | 232 | 9.7 | 25.7 | 0.00 | 0.00 | 0.00 | 27 | 1016.0 |
| 20260506221710 | 15 | 263 | 8.0 | 19.3 | 0.00 | 0.00 | 0.00 | 29 | 1016.1 |
| 20260506220710 | 16 | 319 | 14.5 | 24.1 | 0.00 | 0.00 | 0.00 | 27 | 1016.3 |
| 20260506215710 | 16 | 12 | 11.3 | 29.0 | 0.00 | 0.00 | 0.00 | 30 | 1016.3 |
| 20260506214710 | 16 | 266 | 14.5 | 24.1 | 0.00 | 0.00 | 0.00 | 30 | 1016.4 |
| 20260506213710 | 16 | 313 | 8.0 | 19.3 | 0.00 | 0.00 | 0.00 | 27 | 1016.4 |
| 20260506212710 | 15 | 259 | 11.3 | 27.4 | 0.00 | 0.00 | 0.00 | 33 | 1016.7 |
| 20260506211710 | 15 | 299 | 8.0 | 19.3 | 0.00 | 0.00 | 0.00 | 36 | 1016.8 |
| 20260506210710 | 15 | 282 | 9.7 | 25.7 | 0.00 | 0.00 | 0.00 | 30 | 1017.2 |
| 20260506205711 | 15 | 324 | 20.9 | 32.2 | 0.00 | 0.00 | 0.00 | 34 | 1017.1 |
| 20260506204710 | 14 | 268 | 14.5 | 29.0 | 0.00 | 0.00 | 0.00 | 31 | 1017.5 |
| 20260506203711 | 15 | 285 | 14.5 | 20.9 | 0.00 | 0.00 | 0.00 | 36 | 1017.5 |
| 20260506201710 | 16 | 333 | 17.7 | 24.1 | 0.00 | 0.00 | 0.00 | 39 | 1017.7 |
| 20260506194711 | 14 | 228 | 16.1 | 27.4 | 0.00 | 0.00 | 0.00 | 32 | 1018.1 |
| 20260506193710 | 13 | 290 | 8.0 | 22.5 | 0.00 | 0.00 | 0.00 | 32 | 1018.1 |
| 20260506192710 | 14 | 281 | 14.5 | 25.7 | 0.00 | 0.00 | 0.00 | 34 | 1018.3 |
| 20260506191710 | 14 | 334 | 9.7 | 29.0 | 0.00 | 0.00 | 0.00 | 37 | 1018.1 |
| 20260506190711 | 15 | 315 | 14.5 | 37.0 | 0.00 | 0.00 | 0.00 | 37 | 1018.3 |
| 20260506185711 | 15 | 314 | 19.3 | 25.7 | 0.00 | 0.00 | 0.00 | 38 | 1018.4 |
| 20260506184710 | 14 | 333 | 14.5 | 25.7 | 0.00 | 0.00 | 0.00 | 34 | 1018.6 |
| 20260506183710 | 14 | 301 | 20.9 | 32.2 | 0.00 | 0.00 | 0.00 | 34 | 1018.7 |
| 20260506182710 | 14 | 12 | 14.5 | 32.2 | 0.00 | 0.00 | 0.00 | 35 | 1018.7 |
| 20260506181710 | 13 | 307 | 19.3 | 40.2 | 0.00 | 0.00 | 0.00 | 38 | 1018.8 |
| 20260506180710 | 14 | 304 | 9.7 | 29.0 | 0.00 | 0.00 | 0.00 | 35 | 1018.8 |
| 20260506173710 | 13 | 316 | 14.5 | 29.0 | 0.00 | 0.00 | 0.00 | 34 | 1019.2 |
| 20260506172711 | 13 | 309 | 19.3 | 27.4 | 0.00 | 0.00 | 0.00 | 36 | 1019.3 |
| 20260506171710 | 13 | 318 | 19.3 | 37.0 | 0.00 | 0.00 | 0.00 | 38 | 1019.4 |
| 20260506170710 | 14 | 335 | 19.3 | 33.8 | 0.00 | 0.00 | 0.00 | 38 | 1019.5 |
| 20260506165710 | 13 | 306 | 22.5 | 32.2 | 0.00 | 0.00 | 0.00 | 38 | 1019.6 |
| 20260506164711 | 12 | 309 | 12.9 | 27.4 | 0.00 | 0.00 | 0.00 | 43 | 1019.6 |
| 20260506163711 | 13 | 317 | 16.1 | 29.0 | 0.00 | 0.00 | 0.00 | 40 | 1019.6 |
| 20260506162711 | 12 | 330 | 16.1 | 27.4 | 0.00 | 0.00 | 0.00 | 38 | 1019.9 |
| 20260506161710 | 11 | 298 | 6.4 | 19.3 | 0.00 | 0.00 | 0.00 | 41 | 1019.9 |
| 20260506160711 | 12 | 306 | 16.1 | 25.7 | 0.00 | 0.00 | 0.00 | 36 | 1019.9 |
| 20260506155711 | 12 | 313 | 16.1 | 25.7 | 0.00 | 0.00 | 0.00 | 42 | 1019.7 |
| 20260506154711 | 12 | 296 | 16.1 | 24.1 | 0.00 | 0.00 | 0.00 | 40 | 1019.8 |
| 20260506153710 | 12 | 313 | 9.7 | 22.5 | 0.00 | 0.00 | 0.00 | 40 | 1019.8 |
| 20260506152710 | 11 | 297 | 9.7 | 24.1 | 0.00 | 0.00 | 0.00 | 43 | 1019.8 |
| 20260506151711 | 11 | 326 | 8.0 | 22.5 | 0.00 | 0.00 | 0.00 | 43 | 1019.6 |
| 20260506150711 | 11 | 329 | 11.3 | 19.3 | 0.00 | 0.00 | 0.00 | 47 | 1020.0 |
| 20260506145710 | 11 | 295 | 12.9 | 24.1 | 0.00 | 0.00 | 0.00 | 43 | 1019.9 |
| 20260506144711 | 10 | 269 | 8.0 | 19.3 | 0.00 | 0.00 | 0.00 | 43 | 1019.9 |
| 20260506142711 | 10 | 217 | 8.0 | 14.5 | 0.00 | 0.00 | 0.00 | 44 | 1019.9 |
| 20260506141711 | 9 | 227 | 8.0 | 11.3 | 0.00 | 0.00 | 0.00 | 45 | 1019.8 |
| 20260506140711 | 9 | 249 | 4.8 | 11.3 | 0.00 | 0.00 | 0.00 | 49 | 1019.9 |
| 20260506134711 | 8 | 228 | 3.2 | 4.8 | 0.00 | 0.00 | 0.00 | 50 | 1019.7 |
| 20260506133711 | 7 | 279 | 1.6 | 4.8 | 0.00 | 0.00 | 0.00 | 56 | 1019.5 |
| 20260506132710 | 6 | 284 | 3.2 | 4.8 | 0.00 | 0.00 | 0.00 | 57 | 1019.6 |
| 20260506131710 | 5 | 277 | 3.2 | 4.8 | 0.00 | 0.00 | 0.00 | 61 | 1019.4 |
| 20260506130710 | 5 | 311 | 4.8 | 8.0 | 0.00 | 0.00 | 0.00 | 65 | 1019.3 |
| 20260506125711 | 4 | 294 | 4.8 | 9.7 | 0.00 | 0.00 | 0.00 | 65 | 1019.4 |
| 20260506124710 | 3 | 303 | 3.2 | 8.0 | 0.00 | 0.00 | 0.00 | 68 | 1019.3 |
| 20260506123711 | 3 | 296 | 4.8 | 8.0 | 0.00 | 0.00 | 0.00 | 69 | 1019.2 |
| 20260506122710 | 2 | 287 | 4.8 | 8.0 | 0.00 | 0.00 | 0.00 | 71 | 1019.0 |
| 20260506115710 | 1 | 299 | 4.8 | 4.8 | 0.00 | 0.00 | 0.00 | 71 | 1018.9 |